This demonstration page uses our WeatherBlox Daily Observations layout. Learn more.

Left ArrowRight Arrow

34.02893, -84.19858

Hourly Observations for December 8, 2022

Temp ( °F °C ) Dew Point ( °F °C ) Humidity (%) Winds ( mph kmh ) Pressure ( in mb ) Visibility ( mi km ) Precip ( " mm )
12:07 am 00:07 Mostly Clear with Fog 61 16.1 61 16.1 100 100 SW 6 9 30.26 1025 1 1 0.00 0.00
12:16 am 00:16 Partly Cloudy with Mist and Fog 61 16.1 61 16.1 100 100 WSW 6 9 30.26 1025 1 2 0.00 0.00
12:21 am 00:21 Partly Cloudy with Mist and Fog 61 16.1 61 16.1 100 100 SW 6 9 30.26 1025 4 6 0.00 0.00
12:33 am 00:33 Mostly Cloudy with Mist and Fog 62 16.7 62 16.7 100 100 Calm 30.25 1024 5 8 0.00 0.00
12:53 am 00:53 Mostly Cloudy 63 17.2 63 17.2 100 100 WSW 5 7 30.23 1024 7 11 0.00 0.00
1:06 am 01:06 Partly Cloudy with Mist and Fog 62 16.7 62 16.7 100 100 WSW 5 7 30.24 1024 5 8 0.00 0.00
1:18 am 01:18 Mostly Cloudy with Mist and Fog 62 16.7 62 16.7 100 100 WSW 3 6 30.24 1024 2 3 0.00 0.00
1:32 am 01:32 Mostly Cloudy with Fog 61 16.1 61 16.1 100 100 Calm 30.24 1024 0 0 0.00 0.00
1:49 am 01:49 Mostly Cloudy with Mist and Fog 61 16.1 61 16.1 100 100 W 3 6 30.22 1023 1 1 0.00 0.00
1:56 am 01:56 Partly Cloudy with Mist and Fog 62 16.7 61 16.1 96 96 W 3 6 30.24 1024 2 3 0.00 0.00
2:03 am 02:03 Partly Cloudy with Mist and Fog 62 16.7 62 16.7 100 100 WSW 5 7 30.23 1024 5 8 0.00 0.00
2:30 am 02:30 Cloudy with Mist and Fog 62 16.7 62 16.7 100 100 W 5 7 30.23 1024 4 6 0.00 0.00
2:53 am 02:53 Cloudy with Mist and Fog 62 16.7 62 16.7 100 100 WSW 5 7 30.22 1023 4 6 0.00 0.00
3:14 am 03:14 Cloudy with Mist and Fog 62 16.7 62 16.7 100 100 WSW 5 7 30.23 1024 3 5 0.00 0.00
3:28 am 03:28 Cloudy with Mist and Fog 63 17.2 62 16.7 97 97 W 3 6 30.21 1023 3 5 0.00 0.00
3:39 am 03:39 Cloudy with Mist and Fog 62 16.7 62 16.7 100 100 WNW 3 6 30.22 1023 2 3 0.00 0.00
3:49 am 03:49 Cloudy with Fog 63 17 63 17 100 100 WNW 3 6 30.22 1023 1 1 0.00 0.00
3:53 am 03:53 Cloudy with Fog 63 17.2 62 16.7 97 97 NW 3 6 30.20 1023 1 1 0.00 0.00
4:07 am 04:07 Mostly Clear with Fog 62 16.7 62 16.7 100 100 W 3 6 30.22 1023 0 0 0.00 0.00
4:16 am 04:16 Mostly Clear with Mist and Fog 62 16.7 62 16.7 100 100 W 3 6 30.21 1023 1 1 0.00 0.00
4:23 am 04:23 Cloudy with Mist and Fog 62 16.7 62 16.7 100 100 W 3 6 30.21 1023 2 3 0.00 0.00
4:31 am 04:31 Cloudy with Mist and Fog 62 16.7 62 16.7 100 100 W 3 6 30.21 1023 3 5 0.00 0.00
4:50 am 04:50 Cloudy with Mist and Fog 63 17 63 17 100 100 W 3 6 30.19 1023 2 3 0.00 0.00
4:53 am 04:53 Cloudy with Mist and Fog 63 17.2 63 17.2 100 100 W 5 7 30.19 1022 2 2 0.00 0.00
5:02 am 05:02 Cloudy with Mist and Fog 63 17.2 63 17.2 100 100 W 5 7 30.19 1022 1 1 0.00 0.00
5:40 am 05:40 Cloudy with Mist and Fog 63 17.2 63 17.2 100 100 W 3 6 30.19 1022 1 2 0.00 0.00
5:46 am 05:46 Cloudy with Mist and Fog 63 17.2 63 17.2 100 100 W 5 7 30.19 1022 3 5 0.00 0.00
5:53 am 05:53 Cloudy with Mist and Fog 63 17.2 63 17.2 100 100 VRB 3 6 30.19 1023 4 6 0.00 0.00
6:53 am 06:53 Mostly Clear with Mist and Fog 62 16.7 62 16.7 100 100 W 5 7 30.20 1023 1 1 0.00 0.00
8:00 am 08:00 Partly Cloudy with Fog 62 16.7 62 16.7 100 100 Calm 30.22 1023 0 0 0.00 0.00
8:53 am 08:53 Partly Cloudy with Fog 62 16.7 62 16.7 100 100 Calm 30.22 1023 0 0 0.00 0.00
9:00 am 09:00 Partly Cloudy with Fog 63 17.2 63 17.2 100 100 SSW 3 6 30.22 1023 0 0 0.00 0.00
9:21 am 09:21 Partly Cloudy with Fog 63 17.2 63 17.2 100 100 SSW 3 6 30.22 1023 1 1 0.00 0.00
9:31 am 09:31 Cloudy with Mist and Fog 63 17.2 63 17.2 100 100 SW 3 6 30.22 1023 1 2 0.00 0.00
9:53 am 09:53 Cloudy with Mist and Fog 63 17.2 63 17.2 100 100 SSW 5 7 30.23 1024 2 3 0.00 0.00
10:17 am 10:17 Cloudy 64 17.8 63 17.2 96 96 SW 6 9 30.23 1024 7 11 0.00 0.00
10:54 am 10:54 Mostly Cloudy 67 19.4 64 17.8 90 90 WSW 8 13 30.22 1023 10 16 0.00 0.00
11:32 am 11:32 Partly Cloudy 69 20.6 64 17.8 84 84 WSW 9 15 30.19 1022 10 16 0.00 0.00
11:53 am 11:53 Sunny 70 21.1 64 17.8 81 81 W 8 13 30.18 1022 10 16 0.00 0.00
12:53 pm 12:53 Partly Cloudy 73 22.8 64 17.8 73 73 WSW 7 11 30.15 1021 10 16 0.00 0.00
1:53 pm 13:53 Cloudy 76 24.4 64 17.8 67 67 SW 13 20 30.11 1020 10 16 0.00 0.00
2:53 pm 14:53 Mostly Sunny 74 23.3 61 16.1 64 64 W 9 15 30.10 1019 10 16 0.00 0.00
3:53 pm 15:53 Partly Cloudy 75 23.9 61 16.1 62 62 W 9 15 30.09 1019 10 16 0.00 0.00
4:53 pm 16:53 Sunny 72 22.2 61 16.1 68 68 W 8 13 30.10 1019 10 16 0.00 0.00
5:53 pm 17:53 Mostly Clear 69 20.6 60 15.6 73 73 WSW 5 7 30.11 1020 10 16 0.00 0.00
6:53 pm 18:53 Mostly Clear 68 20 61 16.1 78 78 W 3 6 30.12 1020 10 16 0.00 0.00
7:53 pm 19:53 Clear 63 17.2 60 15.6 90 90 Calm 30.12 1020 9 14 0.00 0.00
8:53 pm 20:53 Clear 63 17.2 60 15.6 90 90 Calm 30.13 1020 8 13 0.00 0.00
9:53 pm 21:53 Clear with Mist and Fog 60 15.6 59 15 96 96 Calm 30.13 1020 5 8 0.00 0.00
10:53 pm 22:53 Clear with Mist and Fog 59 15 59 15 100 100 SSE 3 6 30.12 1020 3 5 0.00 0.00
11:09 pm 23:09 Mostly Clear with Mist and Fog 59 15 59 15 100 100 Calm 30.13 1020 2 3 0.00 0.00
11:17 pm 23:17 Mostly Cloudy with Mist and Fog 60 15.6 59 15 96 96 Calm 30.13 1020 2 2 0.00 0.00
11:26 pm 23:26 Mostly Cloudy with Mist and Fog 60 15.6 59 15 96 96 Calm 30.13 1020 3 5 0.00 0.00
11:35 pm 23:35 Cloudy with Mist and Fog 60 15.6 60 15.6 100 100 Calm 30.13 1020 3 4 0.00 0.00
11:53 pm 23:53 Mostly Cloudy with Mist and Fog 59 15 59 15 100 100 Calm 30.11 1020 3 5 0.00 0.00

Powered by AerisWeather